User: anonymous
Location: St. Malo Provincial Park
(49.3214°N, 96.9305°W)
Time: 01:05:06
(UTC-05:00)
Language:

Iridium 6 - Orbit

View from above orbital plane
View from above orbital plane
View from above satellite
View from above satellite

Ground track
Ground track

The orbit data is extracted from the following two-line orbital elements,

1 24794U 97020C   14263.18527019  .00000150  00000-0  46330-4 0  7885
2 24794 086.4013 017.2819 0002298 109.0281 251.1164 14.34212191909725
Epoch (UTC): 20 September 2014 04:26:47
Eccentricity: 0.0002298
inclination: 86.4013°
perigee height: 776 km
apogee height: 779 km
right ascension of ascending node: 17.2819°
argument of perigee: 109.0281°
revolutions per day: 14.34212191
mean anomaly at epoch: 251.1164°
orbit number at epoch: 90972

The dashed part of the orbit path shows where the satellite is in the earth's shadow,  

DLR